Theta_e
347 351 352 351 359 357 348 347 345 347 347 345 345 348 348 346 349 353 344 344 344 346 344 342 340 340 340 340 340 342 343 343 341 335 337 337 336 339 339 339 338 337 341 342 342 333 334 343 342
355 350 349 351 356 353 349 344 346 345 345 345 346 346 346 347 345 344 344 346 346 347 346 343 339 338 338 339 338 342 342 340 335 337 338 339 340 340 340 341 341 340 339 336 330 330 332 334 334
352 350 352 356 351 350 349 344 346 344 344 344 345 343 344 343 342 343 345 346 344 344 343 342 339 339 340 338 338 340 339 336 334 335 336 339 339 339 340 340 331 333 341 333 338 336 338 338 338
348 350 351 357 348 347 345 344 342 343 343 344 342 343 341 342 341 343 344 344 346 344 344 340 338 337 338 338 337 339 338 337 337 335 336 340 340 340 340 340 341 342 340 339 339 340 338 339 339
349 350 355 353 349 345 344 342 341 343 343 340 340 342 341 341 342 342 344 343 343 343 341 339 338 336 337 337 337 337 337 336 336 341 341 342 341 342 342 341 339 339 340 342 341 339 340 340 336
349 348 354 353 349 346 343 341 339 340 339 339 339 340 340 339 341 341 342 343 343 340 338 336 337 337 336 334 335 336 335 336 340 342 342 340 340 342 342 339 340 340 342 342 339 339 340 339 339
349 351 354 349 349 348 344 340 339 338 338 338 337 340 338 338 340 342 342 342 342 341 337 336 337 339 337 337 336 335 339 340 338 340 339 339 341 340 341 339 337 339 338 338 340 342 340 338 337
346 348 351 349 349 348 342 340 338 339 339 338 338 339 339 338 339 342 341 340 336 335 334 335 336 336 335 334 335 337 339 339 338 338 339 339 333 331 331 333 338 338 337 339 342 342 338 338 337
344 351 354 353 349 347 341 342 342 339 339 342 340 338 338 337 339 341 342 340 339 338 335 334 333 334 334 334 336 338 339 339 338 336 337 342 340 345 343 346 330 331 335 337 340 339 337 336 333
346 354 352 350 348 345 342 342 341 339 340 340 339 339 339 339 340 341 341 341 342 340 338 333 332 331 333 333 332 335 338 336 336 337 345 345 346 345 342 334 326 326 328 334 338 336 337 345 350
347 352 349 350 348 348 342 342 341 341 342 340 339 339 340 340 341 341 341 342 343 344 344 335 332 332 331 333 331 334 336 344 340 343 345 342 341 340 341 340 345 339 344 345 340 342 348 347 346
348 346 348 348 348 347 344 342 343 342 341 340 339 340 340 341 342 341 341 342 343 343 343 342 339 343 343 336 342 343 339 345 341 343 345 342 344 345 345 347 346 346 349 344 348 344 348 348 347
346 346 346 347 349 348 346 343 342 342 341 340 340 340 341 342 342 342 341 342 341 343 343 345 335 343 345 343 344 341 343 342 343 342 344 344 342 346 346 347 350 350 346 347 346 345 349 347 347
346 345 344 346 348 349 348 345 344 342 340 341 341 341 342 344 344 342 341 340 340 342 342 344 345 344 345 346 343 341 342 343 344 343 344 346 345 347 347 347 348 348 349 347 348 350 349 347 345
346 348 346 345 345 348 348 347 346 343 340 341 342 342 342 342 344 344 344 341 341 341 342 342 343 344 345 346 344 345 341 342 343 347 344 345 348 344 347 346 348 348 350 345 349 347 346 347 345
349 349 352 347 344 344 347 350 347 344 340 340 341 342 343 343 343 345 343 343 342 341 342 342 342 342 343 345 345 343 344 344 343 343 343 345 349 349 348 348 349 349 350 347 347 345 346 345 343
351 353 349 348 344 347 345 346 341 346 343 341 341 343 343 343 344 344 343 345 344 344 344 343 344 342 342 347 345 347 345 345 344 343 345 347 345 348 351 348 349 344 348 349 348 346 347 347 346
347 347 348 349 348 348 345 343 343 344 344 344 341 343 344 344 344 344 344 344 345 345 345 345 345 344 343 346 347 344 345 343 345 345 346 345 350 348 347 348 345 339 346 348 350 349 352 349 348
344 343 347 348 348 347 347 344 345 343 342 346 343 342 343 344 345 344 344 344 344 346 346 346 346 348 346 345 344 344 344 343 345 346 348 348 348 349 346 348 345 338 341 349 349 351 351 347 347
341 344 345 347 347 347 348 348 345 344 344 343 344 342 343 343 345 346 346 345 345 346 348 348 347 348 348 345 345 344 344 345 344 346 348 350 348 350 347 346 345 346 346 339 346 350 350 347 349
338 338 342 348 347 346 347 349 348 344 342 344 344 345 343 343 344 345 346 346 346 348 348 349 349 348 348 347 345 346 346 348 345 346 347 350 350 350 347 348 344 345 346 349 350 347 348 349 350
336 334 335 340 346 351 345 353 350 348 343 343 341 342 345 342 343 344 344 344 346 347 349 350 348 348 350 347 347 346 347 344 345 347 347 351 350 350 350 350 337 337 349 348 348 350 350 346 349
335 335 336 339 340 344 343 346 343 348 348 346 344 342 342 344 345 343 344 345 345 346 348 350 351 348 349 348 348 347 348 346 347 347 349 349 350 351 350 343 339 340 350 348 350 355 348 353 347
334 335 337 338 339 340 344 338 347 344 347 349 345 344 344 344 344 345 343 345 345 345 346 349 352 346 349 350 341 350 346 347 347 347 348 347 348 350 350 350 340 342 353 351 355 353 353 347 348
335 336 342 343 343 346 342 336 343 342 338 342 345 345 347 346 346 345 345 345 346 345 346 349 353 350 345 349 350 345 340 344 350 350 346 347 348 348 350 345 351 350 341 353 354 353 353 352 352
335 336 339 344 341 344 340 333 341 336 337 340 341 341 344 346 347 346 346 346 347 346 347 348 352 354 352 351 351 350 350 348 346 345 347 345 347 346 350 350 352 352 353 353 353 353 352 354 353
333 334 333 332 332 334 334 336 335 336 338 340 339 342 344 346 347 347 347 348 346 348 348 349 351 355 354 353 353 352 351 346 346 346 346 347 349 350 353 349 351 352 353 354 356 353 350 354 352
331 333 333 331 335 339 338 336 338 340 339 339 340 342 345 347 348 349 349 348 348 348 349 350 350 353 354 353 353 352 352 352 350 351 350 349 348 347 350 350 351 351 352 352 350 352 352 350 352
332 331 332 333 336 337 337 339 338 338 336 340 341 340 343 344 347 348 349 349 348 348 349 350 350 351 353 353 352 352 352 352 352 350 352 350 351 351 351 349 351 351 351 353 351 351 350 353 353
335 334 333 334 335 336 338 336 338 336 339 339 340 340 341 343 346 347 350 350 348 349 349 350 350 350 351 353 353 353 353 352 351 351 351 352 352 352 353 353 354 353 351 353 351 352 351 354 353
Wind_Speed
4 3 2 6 5 3 10 9 7 10 7 13 10 10 14 14 6 4 13 9 12 13 11 11 10 11 11 10 10 10 11 11 10 9 8 7 8 9 9 10 10 10 11 12 12 13 16 15 15
3 5 6 9 2 2 7 10 13 11 11 10 11 9 9 14 14 14 14 16 17 15 14 12 12 11 9 10 11 12 13 15 12 11 8 7 8 10 10 11 11 12 13 13 14 15 16 16 16
2 6 12 4 2 6 6 12 9 9 6 4 6 9 8 8 7 10 16 17 15 15 12 10 12 12 11 11 13 14 15 18 18 14 12 6 7 9 12 11 13 15 14 15 16 18 16 15 13
3 5 8 2 9 13 10 10 8 9 6 7 10 12 14 8 9 16 18 16 15 14 11 12 13 13 14 13 14 15 15 15 16 15 14 7 7 9 11 11 13 14 16 16 16 15 15 13 12
5 8 7 1 14 9 11 9 7 8 12 7 14 17 18 15 17 16 17 14 16 12 11 10 10 11 14 15 16 15 17 17 16 13 15 9 9 9 10 11 11 15 14 14 15 14 13 11 11
10 8 3 3 12 9 10 10 11 14 11 16 22 20 20 17 16 15 14 16 17 13 11 8 8 17 19 18 15 14 15 13 12 11 14 12 11 10 9 9 11 12 12 14 13 13 12 11 11
13 10 5 12 10 10 9 8 11 13 14 13 16 17 17 17 16 17 17 20 19 17 17 17 12 19 19 16 14 15 12 12 13 16 15 12 7 8 9 9 12 11 11 12 11 11 11 10 10
10 5 14 10 6 14 11 12 9 9 14 9 8 11 17 18 16 16 16 17 18 15 14 14 14 22 19 17 20 15 14 15 15 14 11 8 6 7 9 6 10 10 10 10 9 10 10 9 10
9 7 6 2 9 13 15 13 7 8 12 5 3 19 21 20 17 16 22 20 18 14 14 19 19 21 19 17 17 11 11 15 13 12 12 12 9 10 6 9 7 8 8 8 9 9 9 11 11
7 2 2 8 11 11 13 10 12 11 11 10 15 21 21 19 16 17 16 19 17 15 14 20 21 18 15 16 10 8 13 11 11 11 6 5 6 11 7 6 7 7 8 8 9 8 11 8 2
6 2 2 7 10 7 13 10 5 13 9 14 18 21 19 17 15 14 14 18 18 14 16 14 16 18 14 10 10 6 5 7 6 7 7 7 6 8 8 6 8 9 7 7 6 6 7 2 4
4 6 2 6 4 1 8 9 17 5 13 15 17 19 17 15 15 15 16 15 17 16 13 13 15 16 8 7 9 7 8 8 5 7 7 8 7 6 7 6 7 8 5 5 3 1 3 2 1
10 6 5 3 0 2 5 11 7 13 11 15 18 17 17 12 9 13 13 16 13 13 12 12 13 14 11 7 8 8 10 8 7 5 7 4 7 7 6 6 4 7 5 3 2 3 2 0 2
13 10 8 8 5 3 5 9 6 13 15 16 17 16 15 18 14 13 12 12 13 13 12 11 10 11 11 7 10 9 8 7 8 8 7 8 6 8 7 7 5 5 3 3 2 2 2 1 1
17 15 10 12 3 1 5 9 4 11 14 17 18 15 15 14 14 13 13 14 14 13 13 11 10 10 12 10 12 8 9 8 7 7 6 6 4 11 11 6 3 3 1 3 0 2 2 3 3
12 12 3 8 5 4 8 1 7 11 14 16 17 15 13 15 14 13 12 13 15 14 13 12 12 11 12 11 11 11 4 8 7 6 5 6 6 8 3 3 3 1 2 2 0 2 2 2 2
16 13 10 2 12 2 3 3 13 9 16 14 17 19 15 13 13 14 14 13 14 13 13 13 12 13 14 13 10 6 9 8 9 7 7 7 5 6 4 4 1 2 2 1 2 1 1 3 3
1 13 12 9 10 10 11 13 14 12 14 5 18 19 18 12 15 16 14 14 15 13 14 13 13 14 14 13 9 9 8 8 5 7 7 6 6 7 7 3 2 1 0 2 2 2 2 2 5
18 9 14 9 16 10 10 14 12 15 12 30 20 17 18 17 9 15 15 13 14 14 15 15 14 14 13 12 11 9 11 9 8 9 6 6 6 8 7 4 3 3 2 7 3 2 4 3 7
0 12 3 9 12 7 10 12 11 11 12 12 11 19 17 17 21 17 17 15 15 15 16 17 17 16 15 12 13 10 11 10 10 8 5 6 7 7 4 6 5 5 4 7 4 3 1 3 6
10 4 9 13 11 11 10 5 14 14 15 14 14 10 17 18 22 21 18 18 17 17 17 18 18 19 17 14 13 12 10 7 9 9 7 7 6 6 8 5 6 8 2 4 3 2 2 3 3
5 2 1 6 5 3 8 1 15 15 15 17 17 15 17 13 16 18 19 16 18 17 16 17 17 19 17 18 14 15 13 12 10 9 10 9 7 7 5 5 5 9 5 4 1 0 3 2 4
4 5 8 8 10 15 7 5 5 14 16 16 15 20 19 19 26 20 19 17 17 18 17 17 17 18 18 17 16 15 14 11 11 8 7 8 7 8 6 5 1 5 5 6 6 0 1 1 2
4 9 4 10 12 9 5 11 6 5 11 13 24 22 19 20 14 19 13 19 16 18 17 18 19 17 20 18 20 16 16 12 8 11 8 8 10 8 9 7 4 5 5 3 2 2 2 2 3
13 13 4 6 4 5 9 8 10 14 4 6 6 4 8 17 17 16 17 20 19 20 19 20 20 19 19 18 17 19 16 15 8 8 11 9 10 11 12 7 7 3 5 4 4 3 4 3 4
13 12 4 13 9 10 12 3 7 8 9 7 7 4 3 7 15 19 19 19 15 20 20 20 21 20 20 18 18 17 16 13 12 11 12 9 7 7 11 6 8 7 6 3 4 2 1 5 5
5 6 10 11 6 7 4 6 9 8 8 8 5 5 3 1 2 13 14 20 22 21 21 21 21 20 20 19 17 17 18 17 14 14 15 12 11 4 8 7 8 9 8 7 7 4 4 5 5
13 12 8 8 4 8 5 6 7 12 8 7 5 6 4 3 3 3 7 14 19 22 23 21 21 21 21 19 17 16 17 17 17 13 12 13 16 17 14 9 10 10 10 10 10 7 7 8 6
11 13 11 12 5 6 5 7 9 7 4 8 8 2 6 1 2 4 6 10 17 21 24 24 22 21 19 20 19 17 17 18 17 16 16 15 13 9 11 11 10 11 10 9 11 11 9 8 7
12 10 14 9 9 8 6 3 13 9 9 3 9 7 8 5 3 2 2 6 12 17 20 20 26 22 21 20 20 21 19 18 17 18 18 16 15 14 14 11 11 12 12 9 11 7 7 8 8
Wind_Direction
50 81 242 240 264 211 74 68 62 60 25 67 51 67 68 48 18 79 133 149 153 147 145 147 150 143 136 127 137 132 134 136 122 115 121 118 122 122 134 123 118 121 121 118 110 103 109 104 99
180 249 250 254 231 344 72 35 40 34 75 89 82 46 89 63 72 114 130 135 149 134 139 138 151 145 139 147 144 128 121 131 125 120 115 117 119 125 125 111 117 111 114 115 111 111 109 102 96
144 244 277 284 206 68 76 70 81 82 79 76 87 54 29 85 83 115 133 130 133 132 145 151 147 150 135 139 135 131 125 130 130 123 103 105 134 126 127 119 116 112 110 115 111 111 106 101 94
232 230 216 309 45 90 94 81 103 120 84 69 117 91 82 95 94 121 127 130 128 129 137 152 151 148 136 133 133 127 122 122 126 120 126 144 142 128 122 124 123 121 118 116 114 109 103 96 93
257 260 282 272 102 93 76 72 53 67 81 101 86 84 87 93 112 118 124 127 120 129 120 123 165 164 163 135 130 126 124 128 129 134 134 133 125 116 119 116 118 119 117 113 112 107 99 93 92
261 260 96 11 109 107 85 73 84 83 96 105 104 98 99 110 112 115 116 120 122 114 112 117 129 158 143 129 136 131 126 130 119 120 123 134 129 127 124 135 126 120 114 117 113 110 101 95 94
271 289 165 202 126 97 96 83 95 115 121 107 116 115 122 120 115 115 112 128 120 120 112 87 96 159 152 157 142 125 123 121 109 112 116 109 120 131 129 130 130 132 122 120 118 106 101 99 96
275 274 301 151 112 126 110 98 110 116 93 119 109 133 143 137 129 123 119 120 132 119 106 101 96 120 133 143 138 122 119 125 117 109 110 130 137 118 100 123 142 137 129 125 115 107 107 99 93
281 257 256 266 156 119 127 116 83 96 144 64 71 134 139 142 139 133 127 129 122 122 112 105 104 126 125 129 122 118 124 125 120 117 117 123 87 98 92 171 149 138 128 125 118 112 107 93 71
267 347 15 35 240 130 132 121 127 153 126 106 105 117 138 144 149 145 149 137 143 148 132 109 118 116 120 132 128 121 120 113 123 121 110 116 144 144 157 144 123 122 120 114 110 105 92 66 235
334 140 126 53 53 27 121 127 123 39 143 131 128 137 146 152 152 154 154 152 160 153 139 146 130 120 112 131 133 141 147 137 110 128 128 135 142 143 127 114 93 93 78 90 89 61 26 5 117
88 103 54 56 72 109 127 111 119 155 85 128 138 144 151 161 162 161 159 157 145 151 154 164 153 161 167 128 111 115 115 145 153 161 140 158 149 161 160 143 141 157 112 151 149 148 84 69 26
116 127 67 33 24 221 143 145 125 88 116 127 138 148 153 146 168 154 153 145 150 153 159 167 164 144 160 158 152 152 152 153 152 155 167 179 156 150 150 176 191 71 130 113 101 85 97 60 72
112 116 84 321 318 202 270 135 83 121 133 131 145 153 155 159 170 142 149 155 156 157 158 162 164 159 162 169 163 144 163 148 151 158 164 172 157 175 152 183 120 118 69 123 110 258 71 347 4
119 120 153 232 294 49 194 109 127 145 146 147 146 150 155 155 159 158 161 167 164 163 161 171 172 172 169 163 154 152 152 153 156 160 161 167 144 183 124 115 112 129 112 116 62 276 275 305 320
140 123 143 187 206 335 304 180 335 160 165 165 152 147 156 154 157 154 154 168 163 170 168 170 171 176 169 166 158 167 172 156 158 158 169 160 172 158 122 163 129 133 102 145 243 346 302 316 317
168 119 126 154 182 216 261 202 266 231 158 189 167 158 167 166 158 159 165 168 166 166 173 174 173 172 171 176 174 179 160 152 177 166 174 164 178 195 149 173 218 112 125 151 278 51 295 359 328
251 106 149 142 192 182 184 196 202 213 188 233 184 164 172 216 169 165 167 170 170 175 181 181 177 171 175 185 177 179 174 181 183 179 182 193 189 204 159 214 227 231 193 211 242 233 312 339 327
249 86 103 105 154 169 227 173 167 184 208 167 217 183 181 191 187 197 162 174 173 178 181 184 182 179 180 187 182 178 184 182 197 190 187 206 184 211 194 204 249 254 228 220 230 273 302 326 321
201 93 40 123 160 193 200 177 156 185 195 196 241 178 180 178 179 175 179 187 184 182 186 185 189 191 182 185 188 193 191 191 199 199 174 180 200 203 206 207 229 250 223 256 243 228 261 302 330
230 160 185 144 178 218 180 205 169 176 182 199 221 258 206 192 179 178 181 199 183 180 191 191 190 197 196 196 196 204 192 194 201 204 203 208 203 201 201 238 214 229 148 261 220 213 285 318 316
226 24 233 178 146 312 157 237 275 184 181 186 211 223 221 201 200 197 185 191 198 187 194 195 190 191 197 197 200 201 205 196 200 210 204 191 200 203 212 240 265 216 196 210 224 223 150 5 352
71 229 225 254 258 206 182 121 226 157 183 194 213 210 227 217 205 194 190 186 198 187 193 196 190 188 192 193 184 203 205 209 191 196 186 186 211 200 212 227 192 154 144 212 179 49 130 358 15
309 235 260 228 231 233 169 282 158 341 165 210 188 216 220 225 208 195 201 183 188 191 195 190 193 191 189 197 195 199 211 220 208 195 198 200 207 214 200 212 204 174 180 185 204 221 298 271 274
218 216 210 266 212 7 199 280 118 178 75 85 113 130 211 226 225 210 196 188 188 188 195 191 196 192 193 198 202 210 215 213 222 192 216 210 208 213 211 213 211 217 198 195 193 252 240 287 285
246 275 219 244 217 144 197 218 94 81 110 127 161 150 202 218 213 222 197 213 213 190 196 198 198 196 194 199 202 208 207 210 212 219 206 222 213 207 203 214 215 221 231 215 237 251 213 228 275
269 244 316 314 247 277 185 124 162 126 156 165 188 112 156 120 189 210 212 197 210 200 199 201 199 203 198 199 201 204 205 206 212 215 222 223 227 199 185 203 216 225 235 231 241 253 256 273 291
274 309 218 235 263 255 69 203 150 169 145 183 160 170 133 154 167 209 228 233 201 205 204 204 204 205 205 198 202 208 209 210 214 220 222 212 223 222 241 188 217 225 230 235 233 245 266 272 266
197 239 252 264 246 277 250 67 79 87 144 170 119 130 111 138 224 224 247 229 220 215 200 201 205 207 207 207 204 204 211 212 214 212 223 227 232 229 243 229 220 225 229 243 248 234 224 252 267
280 260 237 237 206 316 326 21 104 114 120 137 125 149 131 99 102 167 203 210 208 213 221 202 200 207 211 211 208 209 209 210 216 217 219 224 226 222 220 231 230 230 230 231 242 227 241 255 270